User: anonymous   Login
Location: Fort Wayne
(41.1310°N, 85.1290°W)
Time: 06:10:04
(UTC-04:00)
Language:

Cosmos 1000 Rocket - Orbit

View from above orbital plane
View from above orbital plane
View from above satellite
View from above satellite

Ground track
Ground track

The orbit data is extracted from the following two-line orbital elements,

1 10777U 78034B   16273.02517550 -.00000045  00000-0 -60576-4 0  9997
2 10777  82.9409  64.8205 0025557 207.1087 292.5190 13.77376040934439
Epoch (UTC): 29 September 2016 00:36:15
Eccentricity: 0.0025557
inclination: 82.9409°
perigee height: 954 km
apogee height: 992 km
right ascension of ascending node: 64.8205°
argument of perigee: 207.1087°
revolutions per day: 13.77376040
mean anomaly at epoch: 292.5190°
orbit number at epoch: 93443

The dashed part of the orbit path shows where the satellite is in the earth's shadow,  

DLR